Messwerte Mtwara

Temperatur

Temperatur
°C
1618891200 7.00 7.00 22
1618894800 8.00 8.00 24
1618898400 9.00 9.00 24
1618902000 10.00 10.00
1618905600 11.00 11.00
1618909200 12.00 12.00
1618912800 13.00 13.00
1618916400 14.00 14.00 28
1618920000 15.00 15.00 29
1618923600 16.00 16.00 26
1618927200 17.00 17.00
1618930800 18.00 18.00 25
1618934400 19.00 19.00 24
1618938000 20.00 20.00 23
1618941600 21.00 21.00 22
1618945200 22.00 22.00 23
1618948800 23.00 23.00 23
1618952400 0.00 0.00
1618956000 1.00 1.00
1618959600 2.00 2.00
1618963200 3.00 3.00 23
1618966800 4.00 4.00 23
1618970400 5.00 5.00 23
1618974000 6.00 6.00 23

Aktuellste Messwerte

Wettercharakter
Wetter: recht sonnig
Temperatur
23 °C
Feuchtigkeit
94 %
Wind
30 km/hWindrichtung: Süd
Luftdruck
1014 hPa
Messzeit: 21. April 2021, 7.00Datenquelle: METAR

Weitere Messstationen in der Nähe

Messstation Temperatur Entfernung
Pemba 24 °C 304 km
Hahaya / Comoros - 365 km
Daressalam 24 °C 393 km
Sansibar - 462 km
Morogoro 21 °C 473 km

Wind

Windrichtung Böen Mittelwind
° km/h km/h
1618891200 7.00 6.00 - 7.00 180° 30
1618894800 8.00 7.00 - 8.00 170° 30
1618898400 9.00 8.00 - 9.00 170° 45
1618902000 10.00 9.00 - 10.00
1618905600 11.00 10.00 - 11.00
1618909200 12.00 11.00 - 12.00
1618912800 13.00 12.00 - 13.00
1618916400 14.00 13.00 - 14.00 180° 30
1618920000 15.00 14.00 - 15.00 160° 20
1618923600 16.00 15.00 - 16.00 200° 10
1618927200 17.00 16.00 - 17.00
1618930800 18.00 17.00 - 18.00 140° 20
1618934400 19.00 18.00 - 19.00 150° 20
1618938000 20.00 19.00 - 20.00 170° 20
1618941600 21.00 20.00 - 21.00 180° 20
1618945200 22.00 21.00 - 22.00 170° 25
1618948800 23.00 22.00 - 23.00 180° 25
1618952400 0.00 23.00 - 0.00
1618956000 1.00 0.00 - 1.00
1618959600 2.00 1.00 - 2.00
1618963200 3.00 2.00 - 3.00 180° 30
1618966800 4.00 3.00 - 4.00 180° 30
1618970400 5.00 4.00 - 5.00 180° 30
1618974000 6.00 5.00 - 6.00 170° 30

Ihre Wetterstation

Fehlt Ihre Wetterstation auf unserem Portal?

Schreiben Sie an network@meteonews.ch